Location: Saluda
(35.2377°N, 82.3468°W)
Time: 16:29:49
(UTC+00:00)

Transit 2A - Pass Details

Date: 12 October 2022
Orbit: 598 x 959 km, 66.7° (Epoch: 06 December)

Event Time Altitude Azimuth Distance (km) Brightness Sun altitude
Rises 12:37:56 0° 312° (NW) 3,095 8.6 12.0°
Reaches altitude 10° 12:40:54 10° 293° (WNW) 2,240 7.8 12.6°
Maximum altitude 12:44:13 18° 252° (WSW) 1,848 7.6 13.2°
Drops below altitude 10° 12:47:44 10° 212° (SSW) 2,391 8.5 13.9°
Sets 12:51:03 0° 194° (SSW) 3,394 9.4 14.6°
